Flag for U.S.A. Weather past 2 weeks in Garden Grove, California, U.S.A.

Now
77 °F

Sunny.


Feels Like: 79 °F
Forecast: 66 / 86 °F
Wind: 3 mph from Southeast

Location: Fullerton Municipal Airport

Current Time: Jul 23, 2014 at 9:59:51 AM

Latest Report: Jul 23, 2014 at 8:53 AM


Visibility: 10 mi

Pressure: 29.99 "Hg

Humidity: 52%

Dew point: 58 °F

Location of Garden GroveLocation

Historic Weather in Garden Grove — Graph

°F

Garden Grove temperature yesterday

Maximum temperature yesterday: 86 °F (at 4:53 PM)
Minimum temperature yesterday: 66 °F (at 4:53 AM)
Average temperature yesterday: 73 °F

Past Weeks' High & Low Weather Summary

 TemperatureHumidityPressure
High87 °F (Jul 9, 3:53 PM)85% (Jul 12, 4:53 AM)30.05 "Hg (Jul 12, 4:53 AM)
Low65 °F (Jul 18, 5:53 AM)35% (Jul 22, 6:53 PM)29.83 "Hg (Jul 13, 5:53 PM)
Average74 °F64%29.96 "Hg
* Reported Jul 8 8:53 AM — Jul 23 8:53 AM, Garden Grove, Weather by CustomWeather, © 2014

Note: Actual official high and low records may vary slightly from our data, if they occured in-between our weather recording intervals... More about our weather records

Advertising

Garden Grove weather history for previous 24 hours

 ConditionsComfort  
Time TempWeatherWind HumidityBarometerVisibility
8:53 AM
Jul 23
77 °FSunny.3 mph52%29.99 "Hg10 mi
7:53 AM73 °FSunny.3 mph59%29.99 "Hg10 mi
6:53 AM69 °FClear.3 mph66%29.98 "Hg10 mi
5:53 AM67 °FClear.No wind68%29.98 "Hg10 mi
4:53 AM68 °FClear.No wind70%29.97 "Hg10 mi
3:53 AM68 °FClear.No wind70%29.97 "Hg10 mi
2:53 AM69 °FClear.3 mph70%29.98 "Hg10 mi
1:53 AM69 °FClear.No wind70%29.99 "Hg10 mi
12:53 AM70 °FClear.No wind68%29.99 "Hg10 mi
10:53 PM
Jul 22
73 °FClear.3 mph57%29.99 "Hg10 mi
9:53 PM73 °FClear.3 mph55%29.99 "Hg10 mi
8:53 PM75 °FSunny.3 mph48%29.98 "Hg10 mi
7:53 PM77 °FSunny.8 mph45%29.97 "Hg10 mi
6:53 PM82 °FSunny.5 mph35%29.97 "Hg10 mi
5:53 PM83 °FSunny.8 mph37%29.97 "Hg10 mi
4:53 PM86 °FSunny.8 mph36%29.98 "Hg10 mi
9:53 AM78 °FSunny.3 mph56%30.04 "Hg10 mi
Weather by CustomWeather, © 2014

See weather overviewHow to use our weather pages